Location: Unspecified
(0.0000°N, 0.0000°E)
Time: 04:39:22
(UTC+00:00)

Vanguard 1 - Pass Details

Date: 13 December 2017
Orbit: 649 x 3834 km, 34.3° (Epoch: 16 January)

Event Time Altitude Azimuth Distance (km) Brightness Sun altitude
Rises 10:58:20 0° 291° (WNW) 7,720 14.4 63.1°
Reaches altitude 10° 11:09:27 10° 316° (NW) 6,046 13.9 64.4°
Maximum altitude 11:16:02 13° 338° (NNW) 5,262 13.7 65.0°
Drops below altitude 10° 11:21:35 10° 1° (N) 4,933 13.5 65.5°
Sets 11:28:17 0° 28° (NNE) 5,164 13.6 66.0°
